TimeEST,TemperatureF,Dew PointF,Humidity,Sea Level PressureIn,VisibilityMPH,Wind Direction,Wind SpeedMPH,Gust SpeedMPH,PrecipitationIn,Events,Conditions,WindDirDegrees,DateUTC
12:53 AM,69.1,64.0,84,30.10,10.0,Calm,Calm,-,N/A,,Mostly Cloudy,0,2013-01-20 05:53:00
1:53 AM,70.0,64.9,84,30.09,10.0,North,3.5,-,N/A,,Overcast,360,2013-01-20 06:53:00
2:53 AM,69.1,64.0,84,30.08,10.0,Calm,Calm,-,N/A,,Partly Cloudy,0,2013-01-20 07:53:00
3:53 AM,68.0,64.9,90,30.07,10.0,NNE,3.5,-,N/A,,Clear,30,2013-01-20 08:53:00
4:53 AM,69.1,66.0,90,30.08,10.0,NNE,5.8,-,N/A,,Overcast,20,2013-01-20 09:53:00
5:53 AM,68.0,66.0,93,30.09,10.0,NNE,4.6,-,N/A,,Partly Cloudy,20,2013-01-20 10:53:00
6:53 AM,69.1,66.9,93,30.10,10.0,North,4.6,-,N/A,,Overcast,10,2013-01-20 11:53:00
7:53 AM,70.0,66.9,90,30.12,10.0,NNE,4.6,-,N/A,,Mostly Cloudy,20,2013-01-20 12:53:00
8:53 AM,72.0,66.9,84,30.14,10.0,NNE,6.9,-,N/A,,Clear,30,2013-01-20 13:53:00
9:53 AM,75.0,66.9,76,30.15,10.0,NE,6.9,-,N/A,,Scattered Clouds,40,2013-01-20 14:53:00
10:53 AM,75.9,68.0,76,30.14,10.0,NE,4.6,-,N/A,,Mostly Cloudy,50,2013-01-20 15:53:00
11:53 AM,75.9,64.0,67,30.10,10.0,North,6.9,-,N/A,,Mostly Cloudy,10,2013-01-20 16:53:00
12:53 PM,73.9,64.9,73,30.08,10.0,North,6.9,-,N/A,,Mostly Cloudy,360,2013-01-20 17:53:00
1:53 PM,73.9,66.9,79,30.05,10.0,North,10.4,-,N/A,,Mostly Cloudy,10,2013-01-20 18:53:00
2:53 PM,73.9,66.0,76,30.04,10.0,North,9.2,-,N/A,,Mostly Cloudy,10,2013-01-20 19:53:00
3:53 PM,73.0,66.0,79,30.03,10.0,North,8.1,-,N/A,,Mostly Cloudy,10,2013-01-20 20:53:00
4:53 PM,73.0,64.9,76,30.04,10.0,North,5.8,-,N/A,,Mostly Cloudy,360,2013-01-20 21:53:00
5:53 PM,72.0,66.0,81,30.04,10.0,North,5.8,-,N/A,,Mostly Cloudy,350,2013-01-20 22:53:00
6:53 PM,72.0,66.0,81,30.04,10.0,NNE,5.8,-,N/A,,Mostly Cloudy,20,2013-01-20 23:53:00
7:53 PM,72.0,66.0,81,30.06,10.0,NNE,8.1,-,N/A,,Overcast,20,2013-01-21 00:53:00
8:53 PM,72.0,66.0,81,30.07,10.0,ENE,5.8,-,N/A,,Overcast,70,2013-01-21 01:53:00
9:53 PM,71.1,66.9,87,30.07,10.0,ESE,5.8,-,N/A,,Overcast,110,2013-01-21 02:53:00
10:53 PM,72.0,64.9,78,30.05,10.0,North,4.6,-,N/A,,Overcast,360,2013-01-21 03:53:00
11:53 PM,71.1,66.9,87,30.05,10.0,North,3.5,-,N/A,,Overcast,10,2013-01-21 04:53:00